Simultaneous Nadir Overpasses (SNOs) Predictions

Prediction of SNOs between GOES-16 and TERRA Satellite Orbit:

Table of predicted SNOs for the next 14.0 days since TLE Epoch: 3/5/2022
Index Date Time (GOES-16) GOES-16 Lat,Lon TERRA Lat,Lon Distance(km) Time Diff (sec)
1 03/06/2022 15:09:41 0.05, -75.21 -0.54, -72.30 330.16 80
2 03/07/2022 03:33:45 -0.06, -75.19 -0.53, -77.50 262.29 80
3 03/09/2022 03:18:51 -0.05, -75.19 0.11, -74.55 73.98 80
4 03/11/2022 03:06:36 -0.05, -75.20 0.71, -71.59 410.47 80
5 03/11/2022 15:30:31 0.05, -75.22 0.37, -76.75 173.84 80
6 03/13/2022 15:18:16 0.05, -75.23 -0.24, -73.79 163.39 80
7 03/14/2022 03:39:40 -0.05, -75.22 -0.83, -78.99 428.52 80
8 03/16/2022 03:27:25 -0.04, -75.23 -0.21, -76.03 90.50 80
9 03/18/2022 03:12:30 -0.04, -75.26 0.41, -73.07 248.25 80
10 03/18/2022 15:33:45 0.04, -75.28 0.66, -78.23 335.75 80
